,,PA_Meas_PMT16A,,PR_Meas_QMR101_102,,RH_Meas_QMH101,,SR_Meas_QMS101,,TA_Meas_QMH101,,GenWind,,GenWind,
time,status,PA,status,PR,status,RH,status,SR,status,TA,status,DirAvg,status,SpdAvg,
2016-04-07, 07:30:04,VALID,918.27,VALID,0,VALID,104,VALID,116.896,VALID,20.3269,VALID,167,VALID,0.0453125,
2016-04-07, 07:31:04,VALID,918.289,VALID,0,VALID,104,VALID,124.739,VALID,20.3479,VALID,178,VALID,1.29961,
2016-04-07, 07:32:04,VALID,918.308,VALID,0,VALID,104,VALID,129.789,VALID,20.3869,VALID,168,VALID,1.27461,
2016-04-07, 07:33:04,VALID,918.368,VALID,0,VALID,104,VALID,137.417,VALID,20.3869,VALID,138,VALID,0.344141,
2016-04-07, 07:34:04,VALID,918.367,VALID,0,VALID,104,VALID,148.913,VALID,20.3854,VALID,127,VALID,0.921484,
2016-04-07, 07:35:04,VALID,918.379,VALID,0,VALID,104,VALID,153.426,VALID,20.4244,VALID,142,VALID,1.20273,
2016-04-07, 07:36:04,VALID,918.369,VALID,0,VALID,104,VALID,159.443,VALID,20.504,VALID,122,VALID,0,
2016-04-07, 07:37:04,VALID,918.396,VALID,0,VALID,104,VALID,157.079,VALID,20.5804,VALID,75,VALID,0.0195313,
2016-04-07, 07:38:04,VALID,918.384,VALID,0,VALID,104,VALID,161.377,VALID,20.6194,VALID,144,VALID,0,
2016-04-07, 07:39:04,VALID,918.339,VALID,0,VALID,104,VALID,164.815,VALID,20.6194,VALID,160,VALID,0,
2016-04-07, 07:40:04,VALID,918.383,VALID,0,VALID,104,VALID,169.112,VALID,20.678,VALID,123,VALID,0,
2016-04-07, 07:41:04,VALID,918.401,VALID,0,VALID,104,VALID,173.088,VALID,20.7365,VALID,145,VALID,0,
2016-04-07, 07:42:04,VALID,918.419,VALID,0,VALID,104,VALID,184.047,VALID,20.8535,VALID,166,VALID,0,
2016-04-07, 07:43:04,VALID,918.458,VALID,0,VALID,104,VALID,193.072,VALID,20.7755,VALID,189,VALID,0.981641,
2016-04-07, 07:44:04,VALID,918.471,VALID,0,VALID,104,VALID,196.94,VALID,20.873,VALID,176,VALID,0,
2016-04-07, 07:45:04,VALID,918.464,VALID,0,VALID,104,VALID,201.022,VALID,21.0096,VALID,177,VALID,0,
2016-04-07, 07:46:04,VALID,918.488,VALID,0,VALID,104,VALID,207.469,VALID,21.0486,VALID,192,VALID,0,
2016-04-07, 07:47:04,VALID,918.547,VALID,0,VALID,104,VALID,217.353,VALID,21.0681,VALID,176,VALID,0,
2016-04-07, 07:48:04,VALID,918.569,VALID,0,VALID,104,VALID,216.709,VALID,21.1461,VALID,175,VALID,0,
2016-04-07, 07:49:04,VALID,918.574,VALID,0,VALID,104,VALID,192.857,VALID,21.2632,VALID,175,VALID,0,
2016-04-07, 07:50:04,VALID,918.603,VALID,0,VALID,104,VALID,162.021,VALID,21.2616,VALID,202,VALID,0,
2016-04-07, 07:51:04,VALID,918.631,VALID,0,INVALID,109.091,VALID,164.707,VALID,21.2827,VALID,181,VALID,0,
2016-04-07, 07:52:04,VALID,918.626,VALID,0,INVALID,109.495,VALID,154.178,VALID,21.2031,VALID,181,VALID,0,
2016-04-07, 07:53:04,VALID,918.642,VALID,0,INVALID,109.792,VALID,153.319,VALID,21.2437,VALID,180,VALID,0,
2016-04-07, 07:54:04,VALID,918.622,VALID,0,INVALID,110.029,VALID,152.996,VALID,21.2421,VALID,150,VALID,0,
2016-04-07, 07:55:04,VALID,918.618,VALID,0,INVALID,110.174,VALID,233.362,VALID,21.2811,VALID,116,VALID,0,
2016-04-07, 07:56:04,VALID,918.61,VALID,0,INVALID,110.242,VALID,246.47,VALID,21.3217,VALID,90,VALID,0,
2016-04-07, 07:57:04,VALID,918.633,VALID,0,INVALID,110.059,VALID,249.156,VALID,21.4388,VALID,64,VALID,0,
2016-04-07, 07:58:04,VALID,918.653,VALID,0,INVALID,109.937,VALID,253.561,VALID,21.5542,VALID,94,VALID,0,
2016-04-07, 07:59:04,VALID,918.645,VALID,0,INVALID,109.678,VALID,250.23,VALID,21.6128,VALID,51,VALID,0,
2016-04-07, 08:00:04,VALID,918.645,VALID,0,INVALID,109.465,VALID,264.305,VALID,21.6908,VALID,77,VALID,0,
2016-04-07, 08:01:04,VALID,918.663,VALID,0,INVALID,109.053,VALID,198.874,VALID,21.7298,VALID,75,VALID,0,
2016-04-07, 08:02:04,VALID,918.68,VALID,0,VALID,104,VALID,246.9,VALID,21.6891,VALID,92,VALID,0,
2016-04-07, 08:03:04,VALID,918.661,VALID,0,VALID,104,VALID,227.238,VALID,21.8079,VALID,64,VALID,0,
2016-04-07, 08:04:04,VALID,918.692,VALID,0,VALID,104,VALID,271.826,VALID,21.8469,VALID,94,VALID,0,
2016-04-07, 08:05:04,VALID,918.721,VALID,0,VALID,104,VALID,218.535,VALID,21.9054,VALID,72,VALID,0,
2016-04-07, 08:06:04,VALID,918.695,VALID,0,VALID,104,VALID,189.741,VALID,22.003,VALID,76,VALID,0,
2016-04-07, 08:07:04,VALID,918.709,VALID,0,VALID,104,VALID,227.453,VALID,22.0225,VALID,105,VALID,0,
2016-04-07, 08:08:04,VALID,918.696,VALID,0,VALID,104,VALID,228.098,VALID,22.042,VALID,105,VALID,0,
2016-04-07, 08:09:04,VALID,918.739,VALID,0,VALID,104,VALID,301.48,VALID,22.1786,VALID,103,VALID,0,
2016-04-07, 08:10:04,VALID,918.767,VALID,0,VALID,104,VALID,249.801,VALID,22.2567,VALID,106,VALID,0,
2016-04-07, 08:11:04,VALID,918.733,VALID,0,VALID,104,VALID,299.761,VALID,22.3916,VALID,130,VALID,0,
2016-04-07, 08:12:04,VALID,918.745,VALID,0,VALID,104,VALID,296.43,VALID,22.4501,VALID,135,VALID,0,
2016-04-07, 08:13:04,VALID,918.753,VALID,0,VALID,104,VALID,314.91,VALID,22.5867,VALID,153,VALID,0,
2016-04-07, 08:14:04,VALID,918.701,VALID,0,VALID,104,VALID,326.406,VALID,22.6843,VALID,118,VALID,0,
2016-04-07, 08:15:04,VALID,918.716,VALID,0,VALID,104,VALID,338.762,VALID,22.7836,VALID,131,VALID,0,
2016-04-07, 08:16:04,VALID,918.702,VALID,0,VALID,103.29,VALID,356.167,VALID,22.7623,VALID,179,VALID,0,
2016-04-07, 08:17:04,VALID,918.738,VALID,0,VALID,103.663,VALID,349.828,VALID,22.7216,VALID,165,VALID,0.9625,
2016-04-07, 08:18:04,VALID,918.747,VALID,0,VALID,104,VALID,363.366,VALID,22.725,VALID,132,VALID,0,
2016-04-07, 08:19:04,VALID,918.758,VALID,0,VALID,104,VALID,365.945,VALID,22.8031,VALID,175,VALID,0,
2016-04-07, 08:20:04,VALID,918.765,VALID,0,VALID,103.495,VALID,373.573,VALID,22.8031,VALID,160,VALID,0,
2016-04-07, 08:21:04,VALID,918.784,VALID,0,VALID,104,VALID,372.498,VALID,22.8014,VALID,167,VALID,0,
2016-04-07, 08:22:04,VALID,918.758,VALID,0,VALID,104,VALID,388.83,VALID,22.8404,VALID,156,VALID,0,
2016-04-07, 08:23:04,VALID,918.787,VALID,0,VALID,101.78,VALID,390.763,VALID,22.8794,VALID,175,VALID,0,
2016-04-07, 08:24:04,VALID,918.769,VALID,0,VALID,101.864,VALID,400.003,VALID,22.938,VALID,175,VALID,0,
2016-04-07, 08:25:04,VALID,918.779,VALID,0,VALID,101.308,VALID,408.276,VALID,23.016,VALID,157,VALID,0,
2016-04-07, 08:26:04,VALID,918.788,VALID,0,VALID,101.986,VALID,401.83,VALID,23.1527,VALID,158,VALID,0,
2016-04-07, 08:27:04,VALID,918.801,VALID,0,VALID,99.6838,VALID,409.888,VALID,23.3088,VALID,171,VALID,0,
2016-04-07, 08:28:04,VALID,918.821,VALID,0,VALID,99.4017,VALID,411.5,VALID,23.4064,VALID,170,VALID,0,
2016-04-07, 08:29:04,VALID,918.826,VALID,0,VALID,100.362,VALID,410.855,VALID,23.6016,VALID,163,VALID,0,
2016-04-07, 08:30:04,VALID,918.855,VALID,0,VALID,92.2891,VALID,413.863,VALID,23.7968,VALID,170,VALID,0,
2016-04-07, 08:31:04,VALID,918.838,VALID,0,VALID,89.8191,VALID,416.657,VALID,23.8554,VALID,182,VALID,0,
2016-04-07, 08:32:04,VALID,918.862,VALID,0,VALID,88.0886,VALID,424.178,VALID,23.8944,VALID,230,VALID,0,
2016-04-07, 08:33:04,VALID,918.861,VALID,0,VALID,88.4469,VALID,429.55,VALID,23.9725,VALID,221,VALID,0,
2016-04-07, 08:34:04,VALID,918.892,VALID,0,VALID,84.963,VALID,427.938,VALID,24.1269,VALID,221,VALID,0,
2016-04-07, 08:35:04,VALID,918.868,VALID,0,VALID,82.3481,VALID,431.376,VALID,24.363,VALID,39,VALID,0,
2016-04-07, 08:36:04,VALID,918.871,VALID,0,VALID,84.0939,VALID,433.31,VALID,24.5173,VALID,65,VALID,0,
2016-04-07, 08:37:04,VALID,918.889,VALID,0,VALID,79.3903,VALID,433.095,VALID,24.5173,VALID,79,VALID,0,
2016-04-07, 08:38:04,VALID,918.859,VALID,0,VALID,78.727,VALID,438.897,VALID,24.5387,VALID,78,VALID,0,
2016-04-07, 08:39:04,VALID,918.863,VALID,0,VALID,79.9315,VALID,443.625,VALID,24.6949,VALID,78,VALID,0,
2016-04-07, 08:40:04,VALID,918.883,VALID,0,VALID,78.018,VALID,446.633,VALID,24.9878,VALID,79,VALID,0,
2016-04-07, 08:41:04,VALID,918.922,VALID,0,VALID,76.8517,VALID,448.674,VALID,25.3394,VALID,79,VALID,0,
2016-04-07, 08:42:04,VALID,918.912,VALID,0,VALID,76.6153,VALID,459.526,VALID,25.5542,VALID,101,VALID,0,
2016-04-07, 08:43:04,VALID,918.964,VALID,0,VALID,75.548,VALID,469.948,VALID,25.6909,VALID,157,VALID,0,
2016-04-07, 08:44:04,VALID,918.964,VALID,0,VALID,75.8225,VALID,479.832,VALID,25.8062,VALID,157,VALID,0,
2016-04-07, 08:45:04,VALID,918.993,VALID,0,VALID,75.3956,VALID,485.097,VALID,25.8452,VALID,323,VALID,0,
2016-04-07, 08:46:04,VALID,918.997,VALID,0,VALID,76.6916,VALID,493.155,VALID,25.7476,VALID,336,VALID,0,
2016-04-07, 08:47:04,VALID,919.009,VALID,0,VALID,74.5189,VALID,496.7,VALID,25.6304,VALID,318,VALID,0,
2016-04-07, 08:48:04,VALID,919.01,VALID,0,VALID,75.914,VALID,499.386,VALID,25.3179,VALID,317,VALID,0,
2016-04-07, 08:49:04,VALID,919.003,VALID,0,VALID,76.0359,VALID,510.023,VALID,25.0836,VALID,317,VALID,0,
2016-04-07, 08:50:04,VALID,919.018,VALID,0,VALID,77.8961,VALID,517.437,VALID,24.9859,VALID,308,VALID,0,
2016-04-07, 08:51:04,VALID,919.035,VALID,0,VALID,76.966,VALID,517.114,VALID,24.9664,VALID,308,VALID,0,
2016-04-07, 08:52:04,VALID,919.055,VALID,0,VALID,77.675,VALID,509.271,VALID,25.0055,VALID,308,VALID,0,
2016-04-07, 08:53:04,VALID,919.071,VALID,0,VALID,77.7588,VALID,519.263,VALID,25.0036,VALID,304,VALID,0,
2016-04-07, 08:54:04,VALID,919.075,VALID,0,VALID,78.1705,VALID,521.197,VALID,24.9664,VALID,307,VALID,0,
2016-04-07, 08:55:04,VALID,919.123,VALID,0,VALID,78.6355,VALID,520.015,VALID,24.9255,VALID,304,VALID,0,
2016-04-07, 08:56:04,VALID,919.118,VALID,0,VALID,80.8616,VALID,524.313,VALID,24.9469,VALID,288,VALID,0,
2016-04-07, 08:57:04,VALID,919.131,VALID,0,VALID,79.2912,VALID,524.313,VALID,25.0269,VALID,219,VALID,0,
2016-04-07, 08:58:04,VALID,919.14,VALID,0,VALID,78.666,VALID,521.09,VALID,25.0074,VALID,295,VALID,0,
2016-04-07, 08:59:04,VALID,919.122,VALID,0,VALID,79.6799,VALID,522.916,VALID,25.0464,VALID,4,VALID,0,
2016-04-07, 09:00:04,VALID,919.14,VALID,0,VALID,79.0167,VALID,528.933,VALID,25.1812,VALID,352,VALID,0,
2016-04-07, 09:01:04,VALID,919.115,VALID,0,VALID,78.1934,VALID,524.528,VALID,25.3765,VALID,332,VALID,0,
2016-04-07, 09:02:04,VALID,919.133,VALID,0,VALID,77.4158,VALID,536.776,VALID,25.6109,VALID,315,VALID,0,
2016-04-07, 09:03:04,VALID,919.136,VALID,0,VALID,76.2647,VALID,546.123,VALID,25.5327,VALID,178,VALID,0.171094,
2016-04-07, 09:04:04,VALID,919.117,VALID,0,VALID,75.8073,VALID,536.669,VALID,25.4937,VALID,230,VALID,0,
2016-04-07, 09:05:04,VALID,919.142,VALID,0,VALID,76.1351,VALID,518.081,VALID,25.4741,VALID,186,VALID,0,
2016-04-07, 09:06:04,VALID,919.144,VALID,0,VALID,77.9113,VALID,531.297,VALID,25.5894,VALID,146,VALID,0,
2016-04-07, 09:07:04,VALID,919.151,VALID,0,VALID,77.0194,VALID,529.792,VALID,25.6694,VALID,174,VALID,0,
2016-04-07, 09:08:04,VALID,919.179,VALID,0,VALID,76.1046,VALID,530.222,VALID,25.7866,VALID,228,VALID,0,
2016-04-07, 09:09:04,VALID,919.186,VALID,0,VALID,75.8759,VALID,524.42,VALID,25.9214,VALID,283,VALID,0,
2016-04-07, 09:10:04,VALID,919.157,VALID,0,VALID,75.6548,VALID,522.916,VALID,25.9019,VALID,307,VALID,0,
2016-04-07, 09:11:04,VALID,919.215,VALID,0,VALID,75.1211,VALID,525.172,VALID,25.9214,VALID,183,VALID,0,
2016-04-07, 09:12:04,VALID,919.191,VALID,0,VALID,74.3893,VALID,532.156,VALID,25.9604,VALID,182,VALID,0.0417969,
2016-04-07, 09:13:04,VALID,919.189,VALID,0,VALID,75.3117,VALID,531.941,VALID,25.9019,VALID,185,VALID,0,
2016-04-07, 09:14:04,VALID,919.203,VALID,0,VALID,74.9534,VALID,540.429,VALID,25.7651,VALID,176,VALID,0,
2016-04-07, 09:15:04,VALID,919.223,VALID,0,VALID,74.4655,VALID,551.818,VALID,25.7456,VALID,195,VALID,0,
2016-04-07, 09:16:04,VALID,919.201,VALID,0,VALID,75.5557,VALID,552.247,VALID,25.8042,VALID,195,VALID,0,
2016-04-07, 09:17:04,VALID,919.207,VALID,0,VALID,74.9992,VALID,546.983,VALID,25.9409,VALID,195,VALID,0,
2016-04-07, 09:18:04,VALID,919.253,VALID,0,VALID,73.0095,VALID,550.636,VALID,26.1342,VALID,216,VALID,0,
2016-04-07, 09:19:04,VALID,919.272,VALID,0,VALID,72.1099,VALID,555.471,VALID,26.1362,VALID,206,VALID,0,
2016-04-07, 09:20:04,VALID,919.251,VALID,0,VALID,71.9117,VALID,567.504,VALID,26.0561,VALID,206,VALID,0,
2016-04-07, 09:21:04,VALID,919.237,VALID,0,VALID,72.857,VALID,564.711,VALID,26.0972,VALID,207,VALID,0,
2016-04-07, 09:22:04,VALID,919.274,VALID,0,VALID,73.6117,VALID,574.38,VALID,26.2514,VALID,199,VALID,0,
2016-04-07, 09:23:04,VALID,919.278,VALID,0,VALID,72.7045,VALID,585.984,VALID,26.4272,VALID,110,VALID,0,
2016-04-07, 09:24:04,VALID,919.281,VALID,0,VALID,70.8825,VALID,599.092,VALID,26.564,VALID,190,VALID,0,
2016-04-07, 09:25:04,VALID,919.286,VALID,0,VALID,69.396,VALID,579,VALID,26.605,VALID,163,VALID,0,
2016-04-07, 09:26:04,VALID,919.317,VALID,0,VALID,70.4861,VALID,307.067,VALID,26.5054,VALID,192,VALID,0,
2016-04-07, 09:27:04,VALID,919.332,VALID,0,VALID,69.9143,VALID,396.243,VALID,26.4272,VALID,205,VALID,0,
2016-04-07, 09:28:04,VALID,919.333,VALID,0,VALID,68.9767,VALID,496.486,VALID,26.3296,VALID,188,VALID,0,
2016-04-07, 09:29:04,VALID,919.357,VALID,0,VALID,70.9588,VALID,627.779,VALID,26.31,VALID,225,VALID,0,
2016-04-07, 09:30:04,VALID,919.375,VALID,0,VALID,69.7238,VALID,509.271,VALID,25.9975,VALID,241,VALID,0,
2016-04-07, 09:31:04,VALID,919.373,VALID,0,VALID,72.8951,VALID,325.117,VALID,25.8804,VALID,258,VALID,0,
2016-04-07, 09:32:04,VALID,919.383,VALID,0,VALID,75.4489,VALID,279.992,VALID,25.8022,VALID,240,VALID,0,
2016-04-07, 09:33:04,VALID,919.396,VALID,0,VALID,75.6624,VALID,273.438,VALID,25.8237,VALID,231,VALID,0,
2016-04-07, 09:34:04,VALID,919.383,VALID,0,VALID,70.7605,VALID,279.454,VALID,25.7241,VALID,197,VALID,0,
2016-04-07, 09:35:04,VALID,919.372,VALID,0,VALID,72.3081,VALID,285.149,VALID,25.7827,VALID,196,VALID,0,
2016-04-07, 09:36:04,VALID,919.372,VALID,0,VALID,74.5799,VALID,298.042,VALID,25.8022,VALID,212,VALID,0,
2016-04-07, 09:37:04,VALID,919.372,VALID,0,VALID,75.6624,VALID,302.769,VALID,25.7066,VALID,234,VALID,0,
2016-04-07, 09:38:04,VALID,919.357,VALID,0,VALID,75.5785,VALID,296.108,VALID,25.607,VALID,235,VALID,0,
2016-04-07, 09:39:04,VALID,919.382,VALID,0,VALID,75.1516,VALID,286.868,VALID,25.646,VALID,236,VALID,0,
2016-04-07, 09:40:04,VALID,919.344,VALID,0,VALID,75.4261,VALID,279.884,VALID,25.607,VALID,236,VALID,0,
2016-04-07, 09:41:04,VALID,919.344,VALID,0,VALID,75.3422,VALID,267.528,VALID,25.4898,VALID,236,VALID,0,
2016-04-07, 09:42:04,VALID,919.358,VALID,0,VALID,76.257,VALID,264.198,VALID,25.4117,VALID,236,VALID,0,
2016-04-07, 09:43:04,VALID,919.31,VALID,0,VALID,77.2557,VALID,262.586,VALID,25.3531,VALID,236,VALID,0,
2016-04-07, 09:44:04,VALID,919.301,VALID,0,VALID,76.3256,VALID,259.041,VALID,25.3141,VALID,236,VALID,0,
2016-04-07, 09:45:04,VALID,919.308,VALID,0,VALID,77.2862,VALID,256.247,VALID,25.2945,VALID,236,VALID,0,
2016-04-07, 09:46:04,VALID,919.336,VALID,0,VALID,76.3561,VALID,259.363,VALID,25.236,VALID,236,VALID,0,
2016-04-07, 09:47:04,VALID,919.341,VALID,0,VALID,76.7068,VALID,269.248,VALID,25.2555,VALID,236,VALID,0,
2016-04-07, 09:48:04,VALID,919.353,VALID,0,VALID,77.0194,VALID,281.496,VALID,25.2555,VALID,236,VALID,0,
2016-04-07, 09:49:04,VALID,919.341,VALID,0,VALID,77.4539,VALID,301.265,VALID,25.1598,VALID,226,VALID,0,
2016-04-07, 09:50:04,VALID,919.368,VALID,0,VALID,77.3472,VALID,327.158,VALID,25.0583,VALID,229,VALID,0,
2016-04-07, 09:51:04,VALID,919.361,VALID,0,VALID,76.2113,VALID,321.142,VALID,25.0407,VALID,237,VALID,0,
2016-04-07, 09:52:04,VALID,919.363,VALID,0,VALID,77.3319,VALID,299.224,VALID,25.0017,VALID,204,VALID,0,
2016-04-07, 09:53:04,VALID,919.345,VALID,0,VALID,78.0028,VALID,297.827,VALID,25.0798,VALID,234,VALID,0,
2016-04-07, 09:54:04,VALID,919.331,VALID,0,VALID,78.5745,VALID,312.331,VALID,25.1383,VALID,237,VALID,0,
2016-04-07, 09:55:04,VALID,919.325,VALID,0,VALID,77.7207,VALID,305.885,VALID,25.1383,VALID,245,VALID,0,
2016-04-07, 09:56:04,VALID,919.301,VALID,0,VALID,77.9266,VALID,277.843,VALID,25.0621,VALID,247,VALID,0,
2016-04-07, 09:57:04,VALID,919.327,VALID,0,VALID,77.2252,VALID,256.784,VALID,25.0407,VALID,265,VALID,0,
2016-04-07, 09:58:04,VALID,919.317,VALID,0,VALID,78.4373,VALID,238.842,VALID,25.0407,VALID,280,VALID,0,
2016-04-07, 09:59:04,VALID,919.311,VALID,0,VALID,78.3154,VALID,225.197,VALID,25.0621,VALID,266,VALID,0,
2016-04-07, 10:00:04,VALID,919.33,VALID,0,VALID,79.0015,VALID,221.973,VALID,25.0798,VALID,276,VALID,0,
2016-04-07, 10:01:04,VALID,919.322,VALID,0,VALID,79.8019,VALID,236.585,VALID,25.1559,VALID,276,VALID,0,
2016-04-07, 10:02:04,VALID,919.331,VALID,0,VALID,79.9315,VALID,267.099,VALID,25.316,VALID,276,VALID,0,
2016-04-07, 10:03:04,VALID,919.323,VALID,0,VALID,76.6839,VALID,372.821,VALID,25.3336,VALID,276,VALID,0,
2016-04-07, 10:04:04,VALID,919.293,VALID,0,VALID,77.4463,VALID,760.039,VALID,25.3531,VALID,275,VALID,0,
2016-04-07, 10:05:04,VALID,919.301,VALID,0,VALID,77.7512,VALID,534.197,VALID,25.4898,VALID,274,VALID,0,
2016-04-07, 10:06:04,VALID,919.3,VALID,0,VALID,76.7068,VALID,368.738,VALID,25.7066,VALID,237,VALID,0,
2016-04-07, 10:07:04,VALID,919.304,VALID,0,VALID,76.1808,VALID,292.562,VALID,25.8999,VALID,242,VALID,0,
2016-04-07, 10:08:04,VALID,919.345,VALID,0,VALID,74.4655,VALID,280.421,VALID,25.8804,VALID,292,VALID,0,
2016-04-07, 10:09:04,VALID,919.335,VALID,0,VALID,73.8252,VALID,333.605,VALID,25.7632,VALID,281,VALID,0,
2016-04-07, 10:10:04,VALID,919.333,VALID,0,VALID,73.8023,VALID,287.513,VALID,25.6655,VALID,280,VALID,0,
2016-04-07, 10:11:04,VALID,919.336,VALID,0,VALID,74.8162,VALID,288.587,VALID,25.5679,VALID,280,VALID,0,
2016-04-07, 10:12:04,VALID,919.32,VALID,0,VALID,75.8682,VALID,286.653,VALID,25.4507,VALID,281,VALID,0,
2016-04-07, 10:13:04,VALID,919.292,VALID,0,VALID,75.1669,VALID,289.017,VALID,25.3922,VALID,280,VALID,0,
2016-04-07, 10:14:04,VALID,919.315,VALID,0,VALID,76.8288,VALID,286.438,VALID,25.3726,VALID,281,VALID,0,
2016-04-07, 10:15:04,VALID,919.307,VALID,0,VALID,78.1705,VALID,277.413,VALID,25.3531,VALID,343,VALID,0,
2016-04-07, 10:16:04,VALID,919.305,VALID,0,VALID,77.6369,VALID,270.322,VALID,25.3531,VALID,3,VALID,0,
2016-04-07, 10:17:04,VALID,919.272,VALID,0,VALID,77.1337,VALID,268.925,VALID,25.3336,VALID,4,VALID,0,
2016-04-07, 10:18:04,VALID,919.299,VALID,0,VALID,76.3866,VALID,275.264,VALID,25.3141,VALID,16,VALID,0,
2016-04-07, 10:19:04,VALID,919.243,VALID,0,VALID,75.6548,VALID,286.223,VALID,25.2769,VALID,15,VALID,0,
2016-04-07, 10:20:04,VALID,919.293,VALID,0,VALID,76.1122,VALID,308.141,VALID,25.1579,VALID,14,VALID,0,
2016-04-07, 10:21:04,VALID,919.269,VALID,0,VALID,76.3333,VALID,364.763,VALID,25.1207,VALID,15,VALID,0,
2016-04-07, 10:22:04,VALID,919.293,VALID,0,VALID,77.5073,VALID,340.481,VALID,25.1988,VALID,15,VALID,0,
2016-04-07, 10:23:04,VALID,919.285,VALID,0,VALID,76.6916,VALID,342.308,VALID,25.3726,VALID,15,VALID,0,
2016-04-07, 10:24:04,VALID,919.308,VALID,0,VALID,77.0041,VALID,343.382,VALID,25.4683,VALID,15,VALID,0,
2016-04-07, 10:25:04,VALID,919.322,VALID,0,VALID,76.3028,VALID,336.076,VALID,25.6265,VALID,10,VALID,0,
2016-04-07, 10:26:04,VALID,919.323,VALID,0,VALID,74.7628,VALID,325.332,VALID,25.6265,VALID,2,VALID,0,
2016-04-07, 10:27:04,VALID,919.316,VALID,0,VALID,75.853,VALID,324.795,VALID,25.5289,VALID,2,VALID,0,
2016-04-07, 10:28:04,VALID,919.324,VALID,0,VALID,78.0485,VALID,416.872,VALID,25.5308,VALID,2,VALID,0,
2016-04-07, 10:29:04,VALID,919.355,VALID,0,VALID,78.1629,VALID,308.356,VALID,25.5484,VALID,2,VALID,0,
2016-04-07, 10:30:04,VALID,919.343,VALID,0,VALID,78.0333,VALID,305.025,VALID,25.607,VALID,2,VALID,0,
2016-04-07, 10:31:04,VALID,919.331,VALID,0,VALID,78.2467,VALID,310.612,VALID,25.6675,VALID,271,VALID,0,
2016-04-07, 10:32:04,VALID,919.286,VALID,0,VALID,78.9786,VALID,318.993,VALID,25.7456,VALID,279,VALID,0,
2016-04-07, 10:33:04,VALID,919.298,VALID,0,VALID,78.3611,VALID,319.1,VALID,25.8413,VALID,276,VALID,0,
2016-04-07, 10:34:04,VALID,919.323,VALID,0,VALID,78.9557,VALID,353.374,VALID,25.978,VALID,292,VALID,0,
2016-04-07, 10:35:04,VALID,919.309,VALID,0,VALID,75.3041,VALID,324.257,VALID,26.0366,VALID,300,VALID,0,
2016-04-07, 10:36:04,VALID,919.286,VALID,0,VALID,74.9306,VALID,326.299,VALID,25.9389,VALID,315,VALID,0,
2016-04-07, 10:37:04,VALID,919.284,VALID,0,VALID,78.0638,VALID,318.778,VALID,25.8218,VALID,350,VALID,0,
2016-04-07, 10:38:04,VALID,919.273,VALID,0,VALID,77.2557,VALID,301.802,VALID,25.8608,VALID,357,VALID,0,
2016-04-07, 10:39:04,VALID,919.289,VALID,0,VALID,76.2342,VALID,284.397,VALID,25.9389,VALID,357,VALID,0,
2016-04-07, 10:40:04,VALID,919.277,VALID,0,VALID,77.027,VALID,267.528,VALID,25.9975,VALID,357,VALID,0,
2016-04-07, 10:41:04,VALID,919.271,VALID,0,VALID,76.1503,VALID,254.743,VALID,25.978,VALID,350,VALID,0,
2016-04-07, 10:42:04,VALID,919.226,VALID,0,VALID,78.8871,VALID,250.016,VALID,25.9585,VALID,304,VALID,0,
2016-04-07, 10:43:04,VALID,919.2,VALID,0,VALID,78.6127,VALID,252.057,VALID,25.9409,VALID,293,VALID,0,
2016-04-07, 10:44:04,VALID,919.226,VALID,0,VALID,79.8934,VALID,258.289,VALID,25.8218,VALID,264,VALID,0,
2016-04-07, 10:45:04,VALID,919.198,VALID,0,VALID,79.6876,VALID,266.561,VALID,25.8022,VALID,264,VALID,0,
2016-04-07, 10:46:04,VALID,919.19,VALID,0,VALID,79.6723,VALID,271.074,VALID,25.8608,VALID,265,VALID,0,
2016-04-07, 10:47:04,VALID,919.154,VALID,0,VALID,81.5934,VALID,280.636,VALID,25.9585,VALID,271,VALID,0,
2016-04-07, 10:48:04,VALID,919.139,VALID,0,VALID,80.6557,VALID,278.38,VALID,25.9585,VALID,329,VALID,0,
2016-04-07, 10:49:04,VALID,919.143,VALID,0,VALID,81.2809,VALID,280.099,VALID,25.978,VALID,329,VALID,0,
2016-04-07, 10:50:04,VALID,919.132,VALID,0,VALID,83.141,VALID,277.091,VALID,26.0757,VALID,329,VALID,0,
2016-04-07, 10:51:04,VALID,919.09,VALID,0,VALID,81.4028,VALID,266.669,VALID,26.1342,VALID,4,VALID,0,
2016-04-07, 10:52:04,VALID,919.095,VALID,0,VALID,80.4957,VALID,250.23,VALID,26.0952,VALID,20,VALID,0,
2016-04-07, 10:53:04,VALID,919.098,VALID,0,VALID,82.1652,VALID,234.437,VALID,26.0366,VALID,37,VALID,0,
2016-04-07, 10:54:04,VALID,919.086,VALID,0,VALID,81.1131,VALID,223.048,VALID,25.8999,VALID,286,VALID,0,
2016-04-07, 10:55:04,VALID,919.092,VALID,0,VALID,82.3024,VALID,212.411,VALID,25.8413,VALID,18,VALID,0,
2016-04-07, 10:56:04,VALID,919.076,VALID,0,VALID,82.31,VALID,206.717,VALID,25.8413,VALID,17,VALID,0,
2016-04-07, 10:57:04,VALID,919.077,VALID,0,VALID,82.9809,VALID,206.932,VALID,25.8218,VALID,20,VALID,0,
2016-04-07, 10:58:04,VALID,919.066,VALID,0,VALID,81.1665,VALID,211.229,VALID,25.7651,VALID,4,VALID,0,
2016-04-07, 10:59:04,VALID,919.066,VALID,0,VALID,83.8347,VALID,216.172,VALID,25.7632,VALID,5,VALID,0,
2016-04-07, 11:00:04,VALID,919.024,VALID,0,VALID,80.7548,VALID,220.577,VALID,25.8022,VALID,4,VALID,0,
2016-04-07, 11:01:04,VALID,919,VALID,0,VALID,80.1526,VALID,226.808,VALID,25.8608,VALID,4,VALID,0,
2016-04-07, 11:02:04,VALID,919.005,VALID,0,VALID,78.7346,VALID,241.42,VALID,25.8999,VALID,4,VALID,0,
2016-04-07, 11:03:04,VALID,918.975,VALID,0,VALID,79.4665,VALID,243.999,VALID,25.8628,VALID,11,VALID,0,
2016-04-07, 11:04:04,VALID,918.973,VALID,0,VALID,80.7396,VALID,247.007,VALID,25.9019,VALID,18,VALID,0,
2016-04-07, 11:05:04,VALID,918.948,VALID,0,VALID,80.0382,VALID,249.263,VALID,25.9604,VALID,18,VALID,0,
2016-04-07, 11:06:04,VALID,918.906,VALID,0,VALID,82.5082,VALID,256.784,VALID,25.9585,VALID,19,VALID,0,
2016-04-07, 11:07:04,VALID,918.899,VALID,0,VALID,79.497,VALID,267.743,VALID,25.9585,VALID,5,VALID,0,
2016-04-07, 11:08:04,VALID,918.874,VALID,0,VALID,79.9696,VALID,285.256,VALID,25.9585,VALID,5,VALID,0,
2016-04-07, 11:09:04,VALID,918.863,VALID,0,VALID,78.6889,VALID,409.781,VALID,25.98,VALID,5,VALID,0,
2016-04-07, 11:10:04,VALID,918.841,VALID,0,VALID,79.375,VALID,443.625,VALID,26.0972,VALID,5,VALID,0,
2016-04-07, 11:11:04,VALID,918.845,VALID,0,VALID,77.8275,VALID,406.128,VALID,26.0776,VALID,5,VALID,0,
2016-04-07, 11:12:04,VALID,918.836,VALID,0,VALID,79.0091,VALID,385.821,VALID,25.9585,VALID,5,VALID,0,
2016-04-07, 11:13:04,VALID,918.8,VALID,0,VALID,79.3445,VALID,291.38,VALID,25.9194,VALID,5,VALID,0,
2016-04-07, 11:14:04,VALID,918.803,VALID,0,VALID,78.8795,VALID,297.934,VALID,25.8042,VALID,5,VALID,0,
2016-04-07, 11:15:04,VALID,918.769,VALID,0,VALID,79.7333,VALID,308.356,VALID,25.6655,VALID,5,VALID,0,
2016-04-07, 11:16:04,VALID,918.737,VALID,0,VALID,83.1638,VALID,302.125,VALID,25.6655,VALID,4,VALID,0,
2016-04-07, 11:17:04,VALID,918.716,VALID,0,VALID,84.7571,VALID,295.356,VALID,25.7241,VALID,6,VALID,0,
2016-04-07, 11:18:04,VALID,918.7,VALID,0,VALID,84.0253,VALID,283.752,VALID,25.8608,VALID,7,VALID,0,